Tracking 26218 objects as of 26-Sep-2022
HD Live streaming from Space Station
objects crossing your sky now

EUTE HOT BIRD 13A (HB 6)

Track EUTE HOT BIRD 13A (HB 6) now!
EUTE HOT BIRD 13A (HB 6) is classified as:


NORAD ID: 27499
Int'l Code: 2002-038A
Perigee: 36,050.8 km
Apogee: 36,070.8 km
Inclination: 5.2 °
Period: 1,449.8 minutes
Semi major axis: 42431 km
RCS: 15.0118 m2 (large)
Launch date: August 21, 2002
Source: European Telecommunications Satellite Organization (EUTE)
Launch site: AIR FORCE EASTERN TEST RANGE (AFETR)

Cable programming; direct-to-home broadcasting; 28 Ku-band, 4 Ka-band transponders
aabbcc
Your satellite tracking list
Your tracking list is empty




NASA's NSSDC Master Catalog

Two Line Element Set (TLE):
1 27499U 02038A   22268.80877740 -.00000168  00000-0  00000-0 0  9991
2 27499   5.2040  76.4744 0002357  56.8320 158.2048  0.99326659 37420
Source of the keplerian elements: AFSPC